Location: DARK SKY Beskydy - Park tmavé oblohy, www.darkskybeskydy.cz
(49.4926°N, 18.5016°E)
Time: 05:16:21
(UTC+02:00)

TIGRISAT - Pass Details

Date: 07 August 2024
Orbit: 591 x 667 km, 97.7° (Epoch: 19 September)

Event Time Altitude Azimuth Distance (km) Brightness Sun altitude
Rises 04:05:37 0° 156° (SSE) 2,944 ? -11.5°
Maximum altitude 04:12:13 64° 73° (ENE) 699 ? -10.7°
Drops below altitude 10° 04:16:31 10° 352° (N) 1,994 ? -10.2°
Sets 04:18:42 0° 350° (N) 2,893 ? -9.9°
